Location: Brachbach
(49.1847°N, 9.7240°E)
Time: 02:21:17
(UTC+00:00)

ARIANE 6 FM1 Upper Stage - Pass Details

Date: 29 January 2026
Orbit: 522 x 609 km, 62.0° (Epoch: 13 February)

Event Time Altitude Azimuth Distance (km) Brightness Sun altitude
Rises 19:13:55 0° 286° (WNW) 2,681 7.3 -29.5°
Reaches altitude 10° 19:16:57 10° 311° (NW) 1,780 5.9 -30.0°
Enters shadow 19:18:22 14° 331° (NNW) 1,536 5.2 -30.3°
